www.pogodaiklimat.ru

Погода и климат >> Архив погоды >> Австралия >> Квинсленд >> Блэколл


ПОГОДА в Блэколле

  • Прогноз погоды в Блэколле
  • Монитор погоды в Блэколле

АРХИВ ПОГОДЫ в Блэколле

Время (UTC), дата Ветер
(напр.,м/с)
 
Видим.   Явления Облачность Т
(С)
Тd
(С)
f
(%)
Тe
(С)
Тes
(С)
Комфортность P
(гПа)
Po
(гПа)
Тmin
(С)
Tmax
(С)
R
(мм)
R24
(мм)
S
(см)
02 16.04 В 6 н/о н/о +27.4 +9.3 32 +28 +28 жарко 1018.5 986.2 +14.1
05 16.04 В 3 н/о н/о +28.3 +10.5 33 +29 +29 жарко 1016.1 983.9
08 16.04 ЮВ 3 н/о н/о +26.3 +9.2 34 +27 +27 жарко 1016.6 984.4
11 16.04 Ю 3 н/о н/о +22.4 +9.6 44 +24 +24 комфорт 1018.1 985.8
14 16.04 штиль 0 н/о н/о +17.2 +10.3 64 +17 +17 1017.7 985.4 +28.8
17 16.04 Ю 2 н/о н/о +14.3 +10.1 76 +14 +14 1016.6 984.4
20 16.04 ЮВ 2 н/о н/о +14.2 +9.0 71 +14 +14 1017.7 985.4
23 16.04 В 5 н/о н/о +23.3 +11.4 47 +26 +26 жарко 1019.3 987.0
02 17.04 СВ 4 н/о н/о +27.4 +10.6 35 +28 +28 жарко 1018.3 986.0 +13.8
05 17.04 В 1 н/о н/о +28.9 +9.6 30 +29 +29 жарко 1016.1 983.9
08 17.04 Ю 2 н/о н/о +25.8 +10.0 37 +27 +27 жарко 1016.6 984.4
11 17.04 ЮВ 3 н/о н/о +22.1 +8.9 43 +23 +23 комфорт 1018.8 986.5
14 17.04 В 3 н/о н/о +17.7 +8.3 54 +18 +18 1018.6 986.3 +29.8
17 17.04 В 3 н/о н/о +16.6 +8.6 59 +17 +17 1017.8 985.5
20 17.04 ЮВ 2 н/о н/о +14.7 +9.5 71 +15 +15 1018.9 986.6
23 17.04 В 4 н/о н/о +23.4 +13.0 52 +26 +26 жарко 1021.2 988.8
02 18.04 В 4 н/о н/о +27.2 +12.4 40 +29 +29 жарко 1019.7 987.4 +14.7
05 18.04 ЮВ 6 н/о н/о +28.2 +9.9 32 +28 +28 жарко 1017.5 985.2
08 18.04 ЮВ 3 н/о н/о +26.5 +8.9 33 +27 +27 жарко 1017.9 985.6
11 18.04 ЮВ 3 н/о н/о +23.7 +9.7 41 +25 +25 комфорт 1019.7 987.4
14 18.04 В 3 н/о н/о +23.0 +9.4 42 +25 +25 комфорт 1019.9 987.6 +29.5
17 18.04 ЮВ 2 н/о н/о +21.0 +10.5 51 +24 +24 комфорт 1018.8 986.5
20 18.04 ЮВ 4 н/о н/о +19.3 +9.8 54 +20 +20 1019.6 987.3
23 18.04 В 4 н/о н/о +23.6 +13.8 54 +26 +26 жарко 1021.7 989.3
02 19.04 В 5 н/о н/о +27.5 +12.3 39 +29 +29 жарко 1019.9 987.6 +19.1
05 19.04 В 4 н/о н/о +28.0 +10.2 33 +28 +28 жарко 1017.0 984.8
08 19.04 ЮВ 4 н/о н/о +27.1 +9.9 34 +28 +28 жарко 1016.9 984.7
11 19.04 В 3 н/о н/о +23.8 +10.8 44 +25 +25 комфорт 1018.4 986.1
14 19.04 ЮВ 3 н/о н/о +19.5 +10.5 56 +21 +21 комфорт 1018.2 985.9 +29.1
17 19.04 ЮВ 2 н/о н/о +16.9 +10.1 64 +17 +17 1017.0 984.8
20 19.04 ЮВ 3 н/о н/о +16.2 +9.4 64 +16 +16 1017.1 984.9
23 19.04 В 4 н/о н/о +22.7 +12.9 54 +26 +26 жарко 1019.0 986.7
02 20.04 В 6 н/о н/о +27.5 +14.8 46 +30 +30 жарко 1017.2 985.0 +15.8
05 20.04 ЮВ 5 н/о н/о +28.4 +13.9 41 +30 +30 жарко 1014.7 982.5
08 20.04 В 3 н/о н/о +25.8 +12.3 43 +27 +27 жарко 1014.4 982.2
11 20.04 штиль 0 н/о н/о +23.0 +14.0 57 +26 +26 жарко 1016.3 984.1
14 20.04 В 4 н/о н/о +22.2 +13.5 58 +25 +25 комфорт 1016.3 984.1 +29.1
17 20.04 В 5 н/о н/о +20.5 +14.6 69 +23 +23 комфорт 1015.0 982.8
20 20.04 В 3 н/о н/о +19.4 +15.1 76 +21 +21 комфорт 1016.2 984.0
23 20.04 В 5 н/о н/о +23.5 +16.8 66 +27 +27 душно 1017.7 985.4
02 21.04 В 5 н/о н/о +27.5 +16.1 50 +31 +31 душно 1016.2 984.0 +18.7
05 21.04 СВ 5 н/о н/о +27.6 +15.3 47 +30 +30 жарко 1014.1 982.0
08 21.04 В 2 н/о н/о +25.9 +15.3 52 +29 +29 душно 1014.6 982.4
11 21.04 В 2 н/о н/о +22.4 +16.2 68 +27 +27 душно 1016.2 984.0
14 21.04 В 2 н/о н/о +21.2 +15.1 68 +24 +24 комфорт 1016.1 983.9 +28.8
17 21.04 В 4 н/о н/о +20.6 +16.8 79 +24 +24 комфорт 1015.4 983.2
20 21.04 В 3 н/о н/о +19.5 +16.9 85 +22 +22 комфорт 1015.8 983.6
23 21.04 СВ 6 н/о н/о +22.9 +17.6 72 +28 +28 душно 1017.2 985.0
02 22.04 СВ 4 н/о н/о +25.9 +16.2 55 +29 +29 душно 1016.3 984.1 +19.4
05 22.04 ЮВ 1 н/о н/о +27.0 +16.9 54 +31 +31 душно 1014.9 982.7
08 22.04 ЮВ 2 н/о н/о +25.3 +16.4 58 +29 +29 душно 1015.2 983.0
11 22.04 ЮВ 2 н/о н/о +23.6 +16.6 65 +27 +27 жарко 1017.3 985.1
14 22.04 Ю 4 н/о н/о +20.8 +15.8 73 +24 +24 комфорт 1017.5 985.2 +27.3
17 22.04 В 4 н/о н/о +20.7 +15.9 74 +24 +24 комфорт 1016.1 983.9
20 22.04 Ю 2 н/о н/о +20.5 +17.7 84 +25 +25 комфорт 1017.2 985.0
23 22.04 СВ 4 н/о н/о +22.2 +17.8 76 +27 +27 душно 1019.0 986.7

 

Местоположение метеостанции Блэколл (Квинсленд, Австралия): широта -24.42 долгота 145.43 высота над уровнем моря 282 м.

В архиве по умолчанию представлена погода в Блэколле за последнюю неделю. Архивные данные за месяц целиком и за предыдущие месяцы, начиная с января 2011 года, Вы можете получить, выбрав интересующий диапазон дат из раскрывающегося списка и нажав кнопку "Ввод!".


*Определитесь, кто Вы:
робот инопланетянин человек

Внимание! Время в таблицах - всемирное. Для получения местного времени необходимо прибавить поправку, которая равна 10 ч.

Смотрите также архив погоды в соседних городах и на ближайших метеорологических станциях:

Погода в Лонгриче (Квинсленд, Австралия) (161 км)
Погода в Лочингтоне (Квинсленд, Австралия) (219 км)
Погода в Чарвилле (Квинсленд, Австралия) (237 км)
Погода в Клермоне (Квинсленд, Австралия) (289 км)
Погода в Эмералде (Квинсленд, Австралия) (295 км)
Погода в Роллстоне (Квинсленд, Австралия) (324 км)
Погода в Уинтоне (Квинсленд, Австралия) (331 км)
Погода в Роме (Квинсленд, Австралия) (411 км)
Погода в Хьюэндене (Квинсленд, Австралия) (419 км)
Погода в Таргоминде (Квинсленд, Австралия) (428 км)

Пояснения к столбцам:

Ветер - указаны скорость ветра в м/с - средняя за 10 мин, порывы в срок и между сроками (в фигурных скобках) и направление, откуда дует ветер: С - северный, СВ - северо-восточный, В - восточный, ЮВ - юго-восточный, Ю - южный, ЮЗ - юго-западный, З - западный, СЗ - северо-западный.
Видимость - горизонтальная дальность видимости в метрах или километрах. При видимости от 1 до 10 км при отсутствии осадков обычно наблюдается дымка, при ухудшении видимости до 1 км и менее - туман. В сухую погоду видимость может ухудшаться дымом, пылью или мглою.
Явления - указаны атмосферные явления, наблюдавшиеся в срок или в последний час перед сроком; фигурными скобками обозначены явления, наблюдавшиеся между сроками (за 1-3 часа до срока); квадратными скобками обозначены град или гололедные отложения с указанием их диаметра в мм.
Облачность - указаны через наклонную черту общая и нижняя облачность в баллах и высота нижней границы облаков в метрах; квадратными скобками обозначены формы облаков: Ci - перистые, Cs - перисто-слоистые, Cc - перисто-кучевые, Ac - высококучевые, As - высокослоистые, Sc - слоисто-кучевые, Ns - слоисто-дождевые, Cu - кучевые, Cb - кучево-дождевые. Подробнее классификацию облаков см. в Атласе облаков (PDF).
T - Температура воздуха - температура, измеренная на высоте 2 м над землей.
Td - Температура точки росы - температура, при понижении до которой содержащийся в воздухе водяной пар достигнет насыщения.
f - Относительная влажность воздуха - влажноcть воздуха, измеренная на высоте 2 м над землей.
Te - Эффективная температура - температура, которую ощущает одетый по сезону человек в тени. Характеристика душности погоды. При расчете учитывается влияние влажности воздуха и скорости ветра на теплоощущения человека.
Tes - Эффективная температура на солнце - температура, которую ощущает человек, с поправкой на солнечный нагрев. Характеристика знойности погоды. Зависит от высоты солнца над горизонтом, облачности и скорости ветра. Ночью, в пасмурную погоду, а также при ветре 12 м/с и более поправка равна нулю.
P - Атмосферное давление - приведенное к уровню моря атмосферное давление.
Po - Атмосферное давление - измеренное на уровне метеостанции атмосферное давление.
Tmin - Минимальная температура - минимум температуры воздуха на высоте 2 м над землей.
Tmax - Максимальная температура - максимум температуры воздуха на высоте 2 м над землей.
R - Количество осадков - Количество выпавших осадков за период времени, мм. При наведении курсора мыши на число - период времени, за который выпало указанное количество осадков.
R24 - Количество осадков - Количество выпавших осадков за 24 часа, мм.
S - Снежный покров - Высота снежного покрова, см. При наведении курсора мыши на число - состояние снежного покрова и степень покрытия местности в баллах.